Location: Bow
(51.5261°N, 0.0167°W)
Time: 16:52:40
(UTC+00:00)

Spot 2 Rocket - Pass Details

Date: 18 September 2020
Orbit: 758 x 771 km, 98.6° (Epoch: 31 October)

Event Time Altitude Azimuth Distance (km) Brightness Sun altitude
Exits shadow 21:28:16 56° 261° (W) 903 3.9 -28.8°
Drops below altitude 10° 21:33:12 10° 338° (NNW) 2,301 6.8 -29.3°
Sets 21:35:34 0° 342° (NNW) 3,231 7.7 -29.5°
